Back to catalog

STARLINK-36057

AliveCommunicationsVLEO
NORAD 66884·PAYLOAD·🇺🇸 United States

Launched Dec 4, 2025 from Vandenberg Space Force Base

Loading…

Next Passes (next 24 hours)

TLE

FreshSource: CelesTrak SupGP

Epoch: Sep 15, 2026, 02:30 UTC

1 66884C 25283G   26258.10465278 -.00062273  00000+0 -18398-2 0  2588
2 66884  53.1575 221.0430 0001520  95.6209 175.5517 15.34423383    19

Track STARLINK-36057 in real time with AllMySat

Download on the App Store